Jefferson, NC

10:23 PM EST on December 05, 2019 (GMT -0500)
Ashe County

Weather History for KGEV - August, 2019

Change the Weather History Date:

Wednesday, August 28, 2019

  Actual Average Record
Temperature  
Mean Temperature 67 °F -  
Max Temperature 74 °F 79 °F 88 °F (1990)
Min Temperature 60 °F 56 °F 39 °F (1968)
Cooling Degree Days 2    
Growing Degree Days 17 (Base 50)    
Moisture  
Dew Point 58 °F    
Average Humidity 78    
Maximum Humidity 100    
Minimum Humidity 50    
Precipitation  
Precipitation 0.00 in - - ()
Sea Level Pressure  
Sea Level Pressure 30.06 in    
Wind  
Wind Speed 4 mph ()    
Max Wind Speed 17 mph    
Max Gust Speed 28 mph    
Visibility 6.6 miles    
Events Fog    
Averages and records for this station are not official NWS values.
T = Trace of Precipitation, MM = Missing Value Source: Averaged Metar Reports

Daily Weather History Graph

Daily Weather History Graph

Search for Another Location

Airport or City:

Astronomy

Aug. 28, 2019 Rise Set
Actual Time 6:53 AM EDT 7:59 PM EDT
Civil Twilight 6:27 AM EDT 8:26 PM EDT
Nautical Twilight 5:55 AM EDT 8:57 PM EDT
Astronomical Twilight 5:22 AM EDT 9:30 PM EDT
Moon 4:29 AM EDT (8/28) 7:06 PM EDT (8/28)
Length of Visible Light 13h 58m
Length of Day
13h 05m
Waning Crescent, 5% of the Moon is Illuminated
Aug 28
Waning Crescent
Aug 30
New
Sep 5
First Quarter
Sep 14
Full
Sep 21
Last Quarter

Hourly Weather History & Observations

Time (EDT) Temp. Dew Point Humidity Pressure Visibility Wind Dir Wind Speed Gust Speed Precip Events Conditions
12:15 AM 61.9 °F 61.9 °F 100% 30.08 in 0.2 mi Calm Calm - N/A Fog Fog
12:35 AM 61.7 °F 61.7 °F 100% 30.07 in 0.2 mi Calm Calm - N/A Fog Fog
12:55 AM 61.7 °F 61.7 °F 100% 30.07 in 0.2 mi Calm Calm - N/A Fog Fog
1:15 AM 61.7 °F 61.7 °F 100% 30.06 in 0.5 mi Calm Calm - N/A Fog Fog
1:35 AM 61.7 °F 61.7 °F 100% 30.06 in 0.5 mi Calm Calm - N/A Fog Fog
1:55 AM 61.7 °F 61.7 °F 100% 30.06 in 0.5 mi Calm Calm - N/A Fog Fog
2:15 AM 61.9 °F 61.9 °F 100% 30.06 in 1.0 mi Calm Calm - N/A   Overcast
2:35 AM 61.7 °F 61.7 °F 100% 30.04 in 0.8 mi Calm Calm - N/A   Overcast
2:55 AM 61.7 °F 61.7 °F 100% 30.04 in 1.2 mi Calm Calm - N/A   Overcast
3:15 AM 61.3 °F 61.3 °F 100% 30.04 in 0.5 mi Calm Calm - N/A Fog Fog
3:35 AM 61.7 °F 61.7 °F 100% 30.03 in 0.8 mi Calm Calm - N/A   Overcast
3:55 AM 61.3 °F 61.3 °F 100% 30.03 in 0.5 mi Calm Calm - N/A Fog Fog
4:15 AM 61.2 °F 61.2 °F 100% 30.03 in 0.2 mi Calm Calm - N/A Fog Fog
4:35 AM 61.3 °F 61.3 °F 100% 30.02 in 0.5 mi Calm Calm - N/A Fog Fog
5:15 AM 61.3 °F 61.3 °F 100% 30.03 in 0.2 mi Calm Calm - N/A Fog Fog
5:35 AM 61.2 °F 61.2 °F 100% 30.03 in 0.2 mi Calm Calm - N/A Fog Fog
5:55 AM 61.0 °F 61.0 °F 100% 30.03 in 0.2 mi Calm Calm - N/A Fog Fog
6:15 AM 60.8 °F 60.8 °F 100% 30.03 in 0.2 mi Calm Calm - N/A Fog Fog
6:35 AM 60.8 °F 60.8 °F 100% 30.03 in 0.2 mi Calm Calm - N/A Fog Fog
6:55 AM 60.8 °F 60.8 °F 100% 30.04 in 0.2 mi Calm Calm - N/A Fog Fog
7:15 AM 60.8 °F 60.8 °F 100% 30.04 in 0.2 mi Calm Calm - N/A Fog Fog
7:35 AM 61.0 °F 61.0 °F 100% 30.04 in 0.8 mi Calm Calm - N/A   Overcast
7:55 AM 61.2 °F 61.2 °F 100% 30.05 in 0.2 mi WNW 3.5 mph - N/A Fog Fog
8:15 AM 63.5 °F 63.5 °F 100% 30.06 in 10.0 mi WNW 3.5 mph - N/A   Mostly Cloudy
8:35 AM 63.5 °F 63.0 °F 98% 30.05 in 10.0 mi WNW 11.5 mph - N/A   Mostly Cloudy
9:15 AM 66.2 °F 62.2 °F 87% 30.04 in 10.0 mi WNW 8.1 mph - N/A   Overcast
9:35 AM 68.2 °F 63.0 °F 83% 30.04 in 10.0 mi WNW 8.1 mph - N/A   Mostly Cloudy
9:55 AM 66.4 °F 63.1 °F 89% 30.06 in 5.0 mi WNW 11.5 mph - N/A   Overcast
10:15 AM 66.9 °F 63.5 °F 89% 30.06 in 5.0 mi WNW 5.8 mph - N/A   Overcast
10:35 AM 66.7 °F 63.7 °F 90% 30.07 in 5.0 mi WNW 5.8 mph - N/A   Overcast
10:55 AM 67.1 °F 63.7 °F 89% 30.07 in 10.0 mi WNW 8.1 mph - N/A   Overcast
11:15 AM 66.7 °F 63.7 °F 90% 30.08 in 10.0 mi WNW 8.1 mph - N/A   Overcast
11:35 AM 69.4 °F 63.1 °F 80% 30.07 in 10.0 mi WNW 12.7 mph 16.1 mph N/A   Mostly Cloudy
11:55 AM 70.0 °F 62.6 °F 77% 30.07 in 10.0 mi WNW 6.9 mph - N/A   Scattered Clouds
12:15 PM 70.7 °F 60.8 °F 71% 30.07 in 10.0 mi WNW 12.7 mph 18.4 mph N/A   Scattered Clouds
12:35 PM 71.6 °F 59.4 °F 65% 30.07 in 10.0 mi WNW 10.4 mph 18.4 mph N/A   Scattered Clouds
12:55 PM 72.3 °F 58.8 °F 62% 30.07 in 10.0 mi WNW 12.7 mph 19.6 mph N/A   Clear
1:15 PM 71.8 °F 56.5 °F 58% 30.07 in 10.0 mi NNW 11.5 mph 23.0 mph N/A   Clear
1:55 PM 72.5 °F 56.8 °F 58% 30.07 in 10.0 mi NNW 9.2 mph 23.0 mph N/A   Clear
2:15 PM 72.9 °F 56.1 °F 56% 30.06 in 10.0 mi NNW 13.8 mph 20.7 mph N/A   Clear
2:35 PM 73.2 °F 54.1 °F 51% 30.06 in 10.0 mi NNW 15.0 mph 27.6 mph N/A   Clear
2:55 PM 73.4 °F 56.3 °F 55% 30.06 in 10.0 mi NW 13.8 mph 21.9 mph N/A   Clear
3:15 PM 73.2 °F 56.7 °F 56% 30.06 in 10.0 mi NNW 11.5 mph 21.9 mph N/A   Clear
3:35 PM 74.5 °F 56.5 °F 53% 30.06 in 10.0 mi West 17.3 mph 25.3 mph N/A   Scattered Clouds
3:55 PM 73.8 °F 54.9 °F 52% 30.05 in 10.0 mi NW 17.3 mph 23.0 mph N/A   Clear
4:15 PM 73.9 °F 55.2 °F 52% 30.05 in 10.0 mi NW 6.9 mph 17.3 mph N/A   Clear
4:35 PM 73.6 °F 55.0 °F 52% 30.05 in 10.0 mi NW 12.7 mph 19.6 mph N/A   Clear
4:55 PM 73.6 °F 54.7 °F 51% 30.06 in 10.0 mi NNW 11.5 mph 18.4 mph N/A   Clear
5:15 PM 73.6 °F 53.8 °F 50% 30.06 in 10.0 mi WNW 12.7 mph 23.0 mph N/A   Clear
5:35 PM 73.0 °F 53.2 °F 50% 30.06 in 10.0 mi West 15.0 mph 20.7 mph N/A   Clear
5:55 PM 71.8 °F 53.1 °F 52% 30.06 in 10.0 mi NW 9.2 mph 17.3 mph N/A   Clear
6:15 PM 72.0 °F 53.2 °F 52% 30.06 in 10.0 mi NW 9.2 mph 17.3 mph N/A   Scattered Clouds
6:35 PM 71.2 °F 52.3 °F 51% 30.07 in 10.0 mi NW 8.1 mph - N/A   Scattered Clouds
6:55 PM 70.9 °F 53.6 °F 54% 30.06 in 10.0 mi NW 5.8 mph - N/A   Scattered Clouds
7:15 PM 70.0 °F 55.8 °F 61% 30.06 in 10.0 mi NW 3.5 mph - N/A   Scattered Clouds
7:35 PM 69.1 °F 55.4 °F 62% 30.06 in 10.0 mi NW 4.6 mph - N/A   Scattered Clouds
7:55 PM 67.8 °F 53.8 °F 61% 30.07 in 10.0 mi NW 4.6 mph - N/A   Clear
8:15 PM 67.1 °F 53.6 °F 62% 30.08 in 10.0 mi NW 5.8 mph - N/A   Clear
8:35 PM 66.2 °F 54.0 °F 65% 30.08 in 10.0 mi NW 4.6 mph - N/A   Clear
8:55 PM 65.1 °F 54.5 °F 68% 30.08 in 10.0 mi NW 3.5 mph - N/A   Clear
9:15 PM 64.4 °F 54.3 °F 70% 30.09 in 10.0 mi NW 5.8 mph - N/A   Clear
9:35 PM 64.0 °F 54.1 °F 70% 30.09 in 10.0 mi NW 5.8 mph - N/A   Clear
9:55 PM 63.5 °F 53.8 °F 71% 30.10 in 10.0 mi NW 5.8 mph - N/A   Clear
10:15 PM 62.8 °F 53.8 °F 72% 30.10 in 10.0 mi NW 4.6 mph - N/A   Clear
10:35 PM 62.4 °F 53.6 °F 73% 30.10 in 10.0 mi NW 5.8 mph - N/A   Clear
10:55 PM 61.9 °F 53.1 °F 73% 30.11 in 10.0 mi NW 5.8 mph - N/A   Clear
11:15 PM 61.3 °F 52.5 °F 73% 30.11 in 10.0 mi NW 8.1 mph - N/A   Clear
11:35 PM 61.2 °F 51.8 °F 71% 30.11 in 10.0 mi NW 6.9 mph - N/A   Clear
11:55 PM 60.8 °F 51.8 °F 72% 30.10 in 10.0 mi NW 6.9 mph - N/A   Clear